ECMWFNIL_500_avort_000.txt.gz
Vorticity
11 13 12 9 7 7 6 6 5 5 6 8 10 8 8 13 12 10 10 9 7 6 4 5 5 6 8 8 9 9 9 10 9 9 9 8 8 8 7 8 10 10
8 10 11 10 9 7 6 6 6 6 9 10 8 9 11 12 10 9 10 8 7 6 5 5 6 7 8 8 8 8 9 9 9 8 8 7 6 6 9 10 10 10
8 8 9 9 9 9 8 7 7 9 10 8 7 12 13 10 9 10 9 7 6 5 5 5 5 5 6 7 7 9 9 9 8 8 8 8 7 8 11 10 8 9
9 10 9 11 11 10 9 7 9 11 9 6 7 11 11 8 9 10 8 6 5 4 4 4 4 5 6 7 8 8 7 7 7 8 9 9 9 11 12 9 8 9
9 9 8 11 10 9 10 8 10 12 8 5 6 8 9 8 8 8 7 6 6 5 5 4 4 5 7 7 6 6 5 5 6 7 9 9 10 12 11 7 7 7
7 4 5 8 8 10 13 10 8 10 7 5 5 6 7 7 6 7 7 7 7 6 3 1 2 3 5 4 5 6 5 5 6 5 6 7 8 9 8 6 6 5
8 6 5 5 7 11 13 10 8 8 8 6 4 5 6 7 6 7 8 8 7 4 1 2 3 4 5 6 6 6 4 4 4 5 6 7 7 7 7 7 8 8
11 12 8 2 3 10 12 10 6 6 9 8 4 2 4 6 7 7 8 9 8 4 2 3 4 4 4 5 6 5 5 5 5 6 5 6 7 7 8 9 8 8
8 6 4 0 0 5 11 11 8 8 11 8 2 -0 3 6 7 7 8 10 8 5 3 3 3 4 3 5 7 7 9 9 7 6 5 5 8 8 9 10 8 8
7 2 0 0 1 4 9 12 9 8 8 7 4 0 0 4 6 8 10 11 10 6 4 3 3 5 7 8 9 8 8 8 7 7 6 8 9 9 8 7 7 8
10 5 1 2 3 5 10 11 5 2 5 7 5 1 0 4 7 10 10 10 8 5 3 3 4 5 7 7 8 9 8 7 6 7 8 10 11 9 7 6 8 9
8 4 2 3 5 8 12 11 1 -1 5 7 4 2 4 6 7 8 9 7 5 3 2 4 5 5 5 6 8 8 7 6 5 6 8 10 11 10 9 9 9 9
7 5 2 3 10 12 11 9 2 -0 5 7 6 5 5 7 9 8 6 5 5 4 3 6 7 5 4 8 9 6 5 7 9 9 8 9 10 10 10 10 10 12
16 11 -2 -2 7 9 8 8 3 0 6 8 6 6 7 9 8 4 3 7 7 5 6 7 7 4 4 7 7 6 8 10 11 11 9 9 11 11 11 14 16 21
20 12 -2 -3 2 4 10 11 2 -2 5 8 7 9 10 8 5 4 6 9 9 7 7 7 5 5 5 5 4 6 8 9 9 8 10 12 12 13 15 17 20 23
13 8 7 8 4 3 10 10 2 -3 -0 6 10 9 7 7 6 6 8 9 10 10 8 5 4 6 7 5 6 7 8 9 10 10 13 15 13 14 17 13 12 17
9 8 7 5 2 6 15 16 7 -4 -5 5 11 6 5 7 6 6 8 9 9 9 6 3 4 7 8 6 7 8 9 10 11 13 14 13 11 14 15 7 5 15
6 11 6 0 2 11 22 23 10 -5 -5 6 9 5 4 7 8 8 8 8 9 8 6 4 6 8 9 10 10 10 10 11 12 13 12 11 11 14 14 7 4 13
10 11 1 -1 7 12 15 16 8 -2 -3 5 9 6 4 7 8 6 9 10 4 -1 1 6 10 11 10 10 9 10 11 11 12 12 10 11 12 13 14 13 8 10
19 12 -2 -2 6 7 6 11 10 4 1 5 8 7 5 7 7 7 11 4 -5 7 23 21 11 9 9 7 5 8 12 14 13 11 10 11 11 11 13 15 13 13
19 13 9 8 4 0 3 10 10 5 3 5 8 9 8 6 6 11 10 -3 4 31 29 -0 -11 1 9 8 7 11 15 15 13 11 10 10 10 10 12 12 13 16
11 13 20 5 -10 -5 6 10 8 5 4 6 11 13 7 2 9 15 6 -3 9 16 -7 -24 -11 6 10 10 10 13 15 13 12 11 10 10 10 10 11 11 11 14
7 18 22 -3 -16 2 15 12 8 5 4 9 17 13 -4 -6 9 12 1 -4 0 -1 -3 5 8 3 5 11 11 12 14 12 11 12 10 11 12 11 11 10 10 12
10 12 10 -7 -7 13 20 14 7 2 1 11 23 14 -11 -12 6 9 3 3 0 3 16 17 1 -5 7 12 8 11 15 11 11 12 11 13 12 10 11 10 10 13
6 6 7 0 3 15 17 11 3 -1 0 7 17 13 -4 -4 9 7 3 5 2 4 11 8 -1 3 10 9 10 14 14 10 12 13 12 13 13 11 12 9 10 14
4 12 14 8 8 12 12 6 0 1 3 3 8 10 2 2 6 2 1 4 5 7 9 8 7 8 9 11 14 13 11 12 14 13 12 14 14 13 12 10 11 14

ECMWFNIL_500_avort_003.txt.gz
Vorticity
12 6 6 7 8 7 7 8 6 6 6 6 7 6 8 11 10 8 10 12 11 9 9 7 5 5 4 3 3 2 2 2 5 7 7 7 7 8 8 7 6 6
10 9 11 10 7 6 9 9 7 7 7 6 8 8 9 10 8 8 10 11 9 8 8 5 4 5 5 3 2 1 2 3 5 6 6 7 8 9 9 8 7 7
4 7 11 12 10 8 10 11 9 8 7 7 8 9 10 9 7 7 9 9 8 7 6 5 5 5 6 4 2 1 2 4 5 5 5 6 6 8 9 9 8 8
2 5 9 12 13 11 8 7 8 6 5 6 8 8 9 10 8 7 6 6 6 6 6 6 6 6 7 5 3 1 2 4 4 4 5 6 6 7 8 8 8 7
2 2 6 10 12 13 9 3 3 6 8 8 8 9 8 10 10 7 4 4 5 6 5 5 7 8 8 6 4 2 3 4 5 5 6 6 7 8 8 7 6 7
5 -1 5 11 9 12 14 9 4 5 9 11 12 10 7 8 11 9 4 3 4 5 5 6 8 8 8 8 6 5 6 6 5 5 7 8 9 8 7 7 7 7
5 -1 5 10 6 10 16 15 11 4 3 8 11 11 8 8 11 9 3 2 3 4 6 7 8 8 8 7 7 6 6 5 4 6 9 11 11 9 7 6 6 8
5 4 6 7 7 13 15 10 6 1 -1 4 9 11 10 9 10 9 6 6 4 2 5 7 8 7 5 4 6 6 3 3 6 9 9 9 10 7 5 5 6 8
5 5 5 6 9 14 11 4 2 -0 -0 4 8 10 9 6 7 11 10 6 3 4 6 8 7 4 3 5 5 3 2 4 8 10 6 4 4 3 4 7 8 7
6 6 6 7 12 13 7 6 9 3 1 4 7 11 12 6 4 9 11 6 5 6 7 8 7 3 2 4 6 6 6 7 9 10 7 4 2 1 5 9 7 4
6 7 7 9 12 11 7 10 13 5 1 6 7 9 13 11 5 6 10 8 6 7 8 8 5 2 5 8 9 11 9 7 9 10 10 7 4 5 7 8 6 8
7 7 10 12 12 10 6 9 12 5 1 5 6 4 10 13 5 2 7 8 8 10 9 5 4 6 9 8 8 11 10 7 7 6 8 9 7 7 7 6 8 13
9 6 8 11 11 8 4 6 14 12 0 -4 -1 2 11 17 5 -3 3 8 9 10 4 2 6 7 7 9 12 10 5 4 6 8 9 10 8 6 6 8 12 15
9 6 8 11 11 11 7 4 11 15 5 -0 3 5 11 19 9 -5 -3 7 10 8 3 3 6 8 11 11 4 -2 3 11 12 10 8 6 6 9 11 12 15 14
14 8 6 8 12 16 12 4 8 14 9 3 4 5 9 18 15 -1 -7 3 9 7 5 4 7 12 12 5 3 15 22 13 3 3 5 4 6 12 14 14 14 14
19 7 4 12 17 15 12 13 15 12 5 2 3 7 11 16 15 3 -6 0 8 10 8 6 9 14 10 9 22 28 10 -8 -4 7 6 2 8 16 16 15 14 13
15 9 8 12 13 9 11 21 20 6 0 4 7 11 12 10 11 7 -0 1 7 11 10 3 6 14 10 7 10 1 -11 -3 12 11 1 3 14 17 15 15 13 11
15 20 11 9 15 9 1 8 13 5 -3 -2 2 8 9 8 11 9 2 2 7 14 13 -1 -3 10 10 2 -2 -5 0 11 12 5 4 10 14 13 13 14 12 10
32 22 1 6 17 8 -3 2 9 6 0 -2 -0 5 7 7 10 6 1 3 7 16 15 -4 -12 1 9 3 1 2 4 5 4 7 10 9 9 12 13 12 10 11
34 18 4 9 15 16 18 10 1 9 22 16 -1 -3 7 10 8 5 2 3 9 18 18 2 -7 2 8 3 0 1 3 5 8 10 9 9 11 12 12 11 12 14
22 21 17 12 14 23 15 -6 -5 21 38 21 -8 -11 7 12 9 6 1 2 10 15 12 3 -0 4 7 3 -1 -1 3 8 10 10 10 12 11 11 12 12 13 16
12 19 18 11 15 22 12 4 17 28 23 8 -9 -10 4 11 11 7 0 1 7 7 7 11 13 11 9 5 2 1 5 10 11 9 10 12 11 12 12 12 14 16
8 17 16 10 17 29 32 30 25 15 10 8 -0 -4 5 15 13 3 -1 3 4 4 11 15 10 4 3 4 5 6 8 11 10 8 10 12 12 12 13 14 14 13
20 25 27 31 34 31 29 25 9 1 7 6 -0 3 15 19 10 1 4 7 1 2 10 5 -4 -2 3 7 8 10 10 9 8 9 11 11 13 15 16 15 12 11
28 17 25 46 38 7 -3 -1 -7 6 28 22 6 11 20 16 5 2 7 5 -2 3 8 4 5 8 7 8 10 9 9 9 8 11 11 11 15 17 15 12 10 11
21 5 16 37 23 -4 -3 2 1 26 46 18 -10 0 13 9 5 6 8 4 2 2 -3 -3 6 9 4 8 11 8 9 10 10 12 12 13 16 15 12 11 10 12

ECMWFNIL_500_avort_006.txt.gz
Vorticity
9 11 10 9 7 6 9 12 13 12 9 8 8 7 7 6 5 5 6 7 8 7 7 7 6 6 6 6 6 6 6 6 6 6 4 3 4 4 5 4 5 8
8 11 9 5 3 3 5 8 12 13 12 10 9 7 7 6 5 5 8 8 7 7 6 6 7 6 5 5 6 6 6 5 6 6 5 5 5 4 4 4 6 8
5 10 11 6 5 5 2 2 8 13 14 13 10 8 6 7 7 8 10 10 9 7 6 7 6 5 3 5 6 5 5 5 6 5 4 4 5 5 4 6 9 9
3 5 10 8 9 11 3 1 5 9 11 13 13 10 8 7 8 10 11 12 9 6 7 9 5 2 4 6 6 6 6 6 4 3 3 4 5 5 5 9 12 9
5 5 9 8 7 7 5 5 7 7 7 11 15 15 12 7 3 7 11 12 10 7 8 10 7 4 5 6 6 7 6 5 4 3 3 4 6 6 6 8 11 11
6 4 6 8 5 1 1 5 8 7 6 11 17 16 11 5 -1 0 8 12 11 9 7 8 9 7 7 5 5 7 7 6 5 3 4 7 8 7 7 8 11 11
4 4 3 6 6 1 -1 1 6 9 9 11 14 11 5 3 1 -0 4 9 11 9 5 6 10 9 6 6 7 9 9 5 3 5 8 9 8 7 7 8 7 6
5 7 4 6 10 6 2 1 1 5 11 12 10 7 4 6 7 5 3 5 11 13 7 5 8 10 7 6 9 9 6 4 5 8 8 7 8 8 7 8 7 7
5 8 8 11 11 6 6 7 1 2 11 12 8 6 5 6 8 7 4 5 9 14 12 6 5 8 6 7 9 8 4 5 6 7 9 8 5 4 6 11 12 8
9 9 11 14 13 7 9 11 4 3 9 9 7 9 8 8 9 6 4 4 3 10 16 10 3 3 5 8 10 7 4 6 7 7 7 4 3 9 16 14 7 2
6 8 8 10 12 8 6 9 6 6 13 11 6 7 6 6 8 9 8 1 -3 9 20 12 2 0 4 8 9 7 6 7 8 7 5 9 16 21 17 6 -2 2
6 11 9 7 7 3 6 12 7 5 14 15 8 9 8 6 8 10 12 6 -2 5 17 16 6 -2 -1 6 9 9 8 6 8 9 10 14 14 8 4 2 3 8
9 10 9 9 9 10 11 8 -3 -5 7 10 7 9 7 4 8 10 9 9 4 3 12 19 13 -0 -5 2 9 10 7 5 9 10 9 6 -3 -5 3 7 6 8
6 7 13 12 10 19 19 7 -1 -1 5 4 -0 6 12 5 3 10 11 7 3 3 11 18 13 4 -1 0 6 11 8 4 7 9 8 4 -3 -4 3 5 6 11
5 8 13 -1 -6 18 27 16 11 9 17 19 -3 -8 15 18 6 10 13 6 4 7 10 11 10 7 4 1 5 12 10 2 -2 0 5 6 1 -1 0 3 7 12
11 20 24 2 -4 22 33 22 12 4 13 23 2 -9 9 20 19 18 10 1 2 7 8 7 8 8 5 2 4 12 16 6 -7 -5 5 7 4 3 4 5 8 10
11 21 27 15 7 16 20 19 17 11 7 8 10 10 -0 -7 4 10 3 -1 -2 -0 4 5 6 7 4 1 5 14 18 10 1 5 9 5 3 5 7 9 10 10
2 4 10 14 13 11 11 11 8 10 14 14 23 30 13 -2 -2 -9 -10 3 4 -1 2 4 5 9 5 -1 4 10 10 6 8 10 2 -2 3 9 11 12 9 8
4 4 1 9 19 14 7 6 -2 -7 1 7 14 25 23 12 0 -10 -3 17 23 12 1 -3 5 14 8 -1 1 6 6 8 10 3 -5 -0 9 11 11 9 7 8
5 4 3 16 28 19 7 10 11 4 4 8 5 12 22 12 -1 4 14 23 30 17 -6 -7 9 16 8 -0 1 6 7 8 4 -4 -3 7 10 8 9 9 8 10
6 6 9 16 21 23 23 23 18 14 23 28 9 3 25 29 16 18 18 17 23 9 -10 -0 15 14 8 3 2 5 5 3 -0 -1 5 10 8 9 11 9 10 11
10 9 8 7 9 17 22 21 21 19 23 26 15 18 46 48 24 17 17 16 14 0 -6 11 18 12 9 4 3 9 5 -3 -2 3 10 10 7 9 10 8 11 12
9 7 7 9 8 6 9 20 26 17 10 18 27 38 51 37 12 11 24 29 16 -4 0 19 18 8 7 5 9 15 4 -6 1 10 10 7 6 9 9 9 11 10
7 6 6 9 9 10 23 30 17 11 29 44 34 15 3 -1 1 15 35 37 10 -13 -0 21 15 4 5 6 8 7 -0 0 10 12 7 5 8 10 10 10 9 9
6 7 9 15 16 16 25 23 11 23 39 26 2 -9 -10 2 21 32 34 23 -2 -10 8 19 13 8 7 4 1 2 7 11 12 8 6 7 10 10 10 10 8 11
11 15 16 19 21 24 33 29 16 15 9 -9 -10 0 3 15 31 30 20 9 2 7 15 16 20 18 2 -5 2 9 13 11 7 7 7 8 10 9 9 10 10 13

ECMWFNIL_500_avort_009.txt.gz
Vorticity
9 9 7 5 6 8 7 5 4 6 4 1 3 7 8 9 9 9 7 6 7 8 8 9 10 9 7 6 6 5 3 2 4 6 6 5 5 5 4 4 3 4
10 7 8 8 5 6 9 8 7 9 8 4 5 7 6 6 8 8 8 7 6 7 7 7 8 8 7 6 7 6 3 1 4 6 5 6 6 5 4 3 4 6
7 4 6 9 7 7 9 9 8 7 5 3 6 10 7 5 6 8 10 9 6 4 4 6 7 8 8 8 8 8 5 4 5 6 5 5 6 6 4 4 6 8
4 4 5 7 7 6 5 6 8 8 4 0 2 7 8 8 8 10 13 11 6 2 0 2 6 9 9 9 8 7 7 8 7 5 4 6 8 6 5 6 9 7
5 5 4 2 2 4 5 6 8 7 4 2 3 3 5 8 10 11 12 10 5 1 1 1 3 8 10 8 7 6 7 8 6 6 5 6 8 6 6 8 9 7
4 3 3 3 4 6 8 9 10 7 3 3 7 7 5 4 7 14 12 6 4 3 5 6 3 5 10 10 9 6 6 8 7 7 7 6 6 5 7 10 8 4
3 3 3 5 6 6 9 9 8 6 3 3 2 2 8 5 0 10 12 5 6 7 7 8 6 5 7 9 12 10 7 8 9 8 6 6 6 5 9 10 4 3
5 5 5 6 5 6 8 6 8 10 9 8 -0 -3 10 9 -4 5 13 4 5 10 8 6 6 7 4 3 10 12 9 7 7 8 6 6 8 8 9 8 4 7
4 6 6 7 6 5 3 -0 5 11 11 10 5 5 14 5 -9 3 16 11 5 7 8 6 4 5 4 1 5 10 10 6 3 5 7 8 10 10 9 7 6 8
4 6 6 8 9 6 5 3 -0 2 9 8 0 4 12 8 0 1 6 11 10 4 6 8 4 5 9 5 3 7 12 12 6 0 3 9 13 12 8 7 8 5
6 7 7 8 7 3 5 9 3 -2 4 6 2 6 11 14 18 6 -9 -1 11 9 10 12 7 5 10 9 3 4 13 17 12 3 1 8 14 12 6 3 2 -0
7 10 14 14 14 15 11 10 11 7 6 3 -2 0 5 12 22 15 -4 -2 9 7 4 10 12 5 6 10 5 3 11 15 14 9 4 7 13 11 6 -1 -7 -5
8 12 17 17 20 24 18 15 22 23 19 13 2 -0 5 10 18 17 6 6 14 10 1 5 14 11 7 8 5 4 8 8 9 12 6 4 8 10 11 7 -0 0
7 6 8 9 10 8 -2 -0 16 16 11 14 13 11 9 5 11 19 18 15 11 10 12 9 9 14 13 9 6 5 5 3 4 8 5 3 5 10 15 14 7 5
6 1 -0 2 11 17 -1 -13 1 4 -3 -1 1 5 9 3 4 10 18 23 7 0 19 14 1 15 19 7 6 4 0 2 2 3 6 5 6 10 10 7 7 6
6 2 2 -1 8 28 21 5 7 5 -3 -4 -4 7 15 13 15 12 10 18 2 -4 21 15 -0 18 19 -0 3 5 1 4 1 3 10 7 5 7 5 6 9 4
7 3 4 0 2 18 25 21 17 7 4 8 9 14 14 11 25 28 21 22 3 -8 18 24 11 12 0 -9 3 7 6 8 1 5 13 7 4 6 5 8 5 -2
8 2 -2 -0 7 20 30 28 15 6 10 11 8 14 13 6 11 15 23 36 23 8 19 26 20 10 -8 -7 7 10 13 12 1 6 15 7 4 5 5 4 -1 -0
5 3 -5 -4 5 17 29 26 16 14 14 6 6 15 13 8 9 11 14 17 20 33 38 26 24 23 9 6 9 11 19 12 -2 8 17 7 3 6 5 1 -1 6
2 2 -5 -4 1 8 14 14 14 16 9 6 16 18 11 11 13 16 20 10 8 38 55 40 26 19 11 11 12 16 20 7 -3 11 17 7 7 9 6 4 6 10
6 4 -3 -2 3 7 10 9 8 11 13 18 20 11 10 18 15 28 50 31 -1 7 27 27 18 9 10 18 19 19 13 -2 3 20 16 6 8 9 8 9 10 8
2 3 -0 1 4 5 7 5 4 12 20 20 13 15 26 21 10 31 51 26 2 13 24 22 17 10 9 16 23 22 6 -3 15 26 11 2 6 7 8 10 7 5
-3 -3 -1 4 6 6 7 5 4 11 17 17 22 38 44 21 4 19 28 15 16 26 23 22 21 10 7 21 33 20 -5 -0 24 22 2 0 5 4 6 6 4 8
-2 -7 -3 6 9 8 7 6 6 9 16 24 23 12 2 -2 5 16 17 15 16 7 6 22 25 13 15 28 24 2 -6 15 28 9 -8 -4 1 4 7 6 6 10
1 -5 -0 8 12 13 12 10 9 10 18 25 15 -4 -10 2 16 15 10 14 11 -2 9 33 29 14 14 15 8 2 13 29 21 -5 -13 -7 -1 4 6 3 5 8
2 1 6 11 15 20 17 10 9 14 22 23 13 7 9 11 13 11 9 11 5 5 32 50 34 19 20 17 10 7 10 15 4 -13 -13 -7 -4 1 1 1 5 6

ECMWFNIL_500_avort_015.txt.gz
Vorticity
9 9 9 9 8 8 9 8 8 9 8 7 7 5 6 7 9 9 7 4 4 6 6 5 5 5 4 4 5 8 10 10 9 6 4 3 3 7 10 11 9 7
10 9 8 7 8 9 7 5 4 6 6 5 5 4 5 6 6 6 5 3 4 6 6 3 2 1 3 5 3 4 7 8 7 5 4 4 4 5 8 11 10 8
9 8 8 6 7 7 4 4 4 4 5 5 6 6 6 7 7 7 4 3 3 2 2 4 3 0 1 5 7 5 4 5 6 5 3 5 7 7 8 8 9 9
7 7 8 5 5 3 2 3 4 5 6 6 6 5 6 6 6 6 5 4 5 4 4 7 10 8 2 1 6 9 7 3 4 8 9 8 9 10 10 9 8 9
8 7 5 4 4 3 4 5 5 6 6 6 6 5 5 6 7 8 5 2 3 3 4 6 7 9 6 3 3 4 6 3 -2 4 13 11 7 7 9 10 8 6
8 6 4 5 5 5 6 6 4 4 4 3 3 3 6 7 5 5 4 5 8 6 7 8 5 3 4 7 7 7 15 13 -3 -3 11 14 10 8 8 8 8 7
6 5 5 5 5 6 6 5 3 3 4 7 8 6 7 4 2 5 7 8 11 9 7 8 13 19 17 13 13 17 25 21 2 -2 10 15 15 13 10 4 3 10
4 5 6 5 6 6 3 2 2 4 9 11 9 6 5 3 6 9 -1 -8 1 9 9 9 13 17 11 3 6 15 21 15 6 7 10 9 11 14 15 10 4 7
7 7 7 6 4 2 2 6 6 8 8 1 -1 5 7 5 7 7 -1 2 16 22 26 30 24 14 7 5 9 15 13 10 10 12 11 8 8 9 15 21 20 16
9 8 6 3 1 2 6 9 8 12 12 1 0 9 8 8 16 19 15 19 22 15 14 21 20 15 13 10 8 7 7 8 10 11 11 9 6 7 12 18 24 27
8 7 3 -1 2 8 11 9 5 9 13 12 18 22 19 20 23 20 13 10 9 6 5 6 8 11 10 6 4 5 8 10 10 11 9 4 3 6 7 8 15 24
4 3 1 2 7 9 9 8 4 3 6 12 18 16 11 8 5 5 3 3 7 7 6 5 6 11 16 15 13 9 7 8 10 11 6 4 9 7 5 18 25 20
3 2 3 6 7 4 3 4 3 0 3 9 9 3 -0 -3 -2 2 -1 1 7 8 7 8 6 11 21 24 19 10 6 10 14 13 10 13 17 8 8 33 44 24
2 3 5 7 6 6 8 9 9 6 1 1 1 1 2 1 3 5 1 1 6 7 11 11 4 7 17 20 16 9 6 11 12 10 12 12 10 6 7 25 46 38
3 6 8 7 6 8 8 6 8 9 4 0 -1 -0 2 1 3 5 4 4 5 8 13 10 9 22 27 18 11 7 7 11 10 6 6 4 4 9 6 9 31 41
5 6 5 5 4 4 4 2 3 6 7 7 4 2 2 3 4 5 6 6 7 11 14 14 20 28 20 7 7 11 9 9 8 4 2 3 7 10 7 6 17 31
6 5 6 7 6 4 2 2 2 3 4 5 4 4 5 3 2 5 8 9 10 13 17 18 16 6 -3 3 14 14 9 9 9 5 4 8 11 9 8 10 14 28
2 3 5 5 6 5 1 0 3 3 4 4 3 4 5 3 2 6 11 12 12 15 17 15 12 7 6 12 14 9 9 13 12 8 7 8 8 6 6 11 16 23
-2 -1 1 2 4 5 2 -0 -0 -1 -1 -0 -1 1 1 1 5 10 14 15 14 15 14 11 12 14 12 8 8 9 11 12 13 10 5 2 5 7 7 13 18 14
-2 -1 1 2 2 3 2 1 -1 -3 -3 -2 -2 -2 -2 0 6 12 15 17 17 15 10 7 11 14 10 7 8 10 9 10 14 13 7 5 11 14 11 16 21 12
-1 1 1 2 2 3 2 1 0 0 0 -0 -2 -3 -3 1 6 11 15 17 18 14 6 7 15 16 11 6 6 8 11 11 10 11 12 13 16 19 20 20 19 13
-1 -0 -0 0 2 3 4 3 2 2 2 0 -1 -2 -0 4 6 9 15 16 14 11 11 15 20 15 9 9 10 11 13 10 6 4 6 8 10 13 19 18 13 11
1 1 0 1 3 3 4 3 1 2 2 1 2 1 -0 2 3 5 16 21 15 11 14 19 21 13 7 11 13 11 9 7 7 6 4 7 9 12 15 16 14 14
2 2 2 3 2 2 4 3 0 2 2 1 4 4 1 1 -1 5 23 28 18 15 16 16 21 19 11 9 11 8 6 6 7 8 9 10 11 13 16 16 15 20
4 4 6 5 3 3 3 1 0 2 1 1 4 5 6 5 2 13 35 34 20 19 19 12 14 18 11 8 9 6 5 8 8 7 9 11 12 16 18 15 15 20
2 4 6 3 2 3 1 2 6 6 2 1 3 3 5 6 6 21 39 34 20 19 19 11 11 12 7 6 7 6 7 8 6 6 7 11 17 20 16 14 18 18

ECMWFNIL_500_avort_021.txt.gz
Vorticity
5 4 4 5 5 6 6 6 9 13 12 12 10 7 5 6 6 5 5 5 6 7 6 6 5 5 7 4 -1 3 12 17 21 19 11 9 14 16 13 8 5 6
5 4 4 4 4 6 5 5 11 14 12 10 8 5 5 6 6 5 6 7 6 5 5 5 6 7 8 3 -0 6 9 11 20 26 21 14 11 10 8 6 7 8
5 4 4 4 5 7 5 6 12 13 11 9 6 4 5 6 6 6 6 7 6 5 6 6 7 8 7 7 8 7 2 0 5 12 15 15 11 9 7 5 5 5
5 4 5 5 6 7 5 8 14 13 9 7 5 5 6 6 6 7 9 9 6 4 5 6 8 11 11 10 10 5 2 3 4 4 6 8 8 8 7 5 5 7
7 6 6 6 7 7 7 11 14 11 8 6 4 5 6 6 6 8 9 6 4 7 10 11 11 12 10 7 6 6 6 6 6 6 5 4 6 6 6 7 10 11
7 7 7 7 8 8 10 14 12 8 7 5 4 6 7 6 7 10 9 6 9 12 10 10 9 7 6 4 4 5 7 7 7 8 8 6 5 4 3 6 9 10
11 10 8 9 11 10 12 14 10 7 6 4 5 7 7 8 9 11 10 7 8 7 3 4 6 4 3 3 3 3 4 5 5 7 9 10 7 5 5 7 10 9
13 11 11 12 12 12 14 12 8 6 5 5 7 7 7 9 9 7 4 3 4 4 4 5 6 5 5 6 6 5 4 4 6 7 9 11 10 7 9 14 16 9
14 12 13 14 13 14 13 9 7 6 5 6 7 9 9 7 4 4 3 3 5 7 11 13 15 14 10 11 14 13 11 9 9 8 9 12 14 12 13 16 13 7
14 14 14 14 14 13 10 6 6 5 5 7 8 7 5 3 4 5 5 6 8 12 14 13 13 11 6 8 12 15 15 11 8 8 7 10 14 16 15 9 0 1
13 15 16 14 13 10 7 6 6 5 5 6 6 4 2 4 6 6 7 10 10 9 7 5 4 5 5 5 5 8 11 9 7 7 6 7 11 14 14 6 -2 2
11 14 14 13 11 7 6 6 5 5 6 5 3 3 4 6 6 7 9 8 4 1 -0 1 3 5 4 1 1 4 8 9 9 8 7 9 9 9 11 9 6 8
11 12 10 9 8 5 6 7 6 5 4 4 5 5 6 6 6 8 6 0 -2 -1 -2 -2 1 2 1 -0 -0 1 4 8 11 11 11 11 9 7 8 7 7 8
10 10 8 7 7 7 7 7 6 5 4 6 6 5 6 7 5 4 1 -2 1 2 1 0 -0 -1 -0 -0 -1 -1 1 5 9 12 16 16 10 6 5 6 7 8
8 8 7 7 9 9 8 6 3 4 6 6 6 6 6 6 6 5 4 4 6 5 5 5 3 1 -1 -1 -1 -1 -1 3 5 9 19 24 17 8 5 9 12 11
7 7 8 9 10 7 4 5 4 4 7 7 7 7 5 5 5 5 4 3 0 1 2 3 2 1 -1 -1 1 1 0 3 4 5 15 27 26 13 7 12 18 15
9 10 11 9 7 4 3 4 5 5 6 6 6 4 2 2 2 -0 -0 -0 0 1 2 4 3 0 -0 1 2 3 3 2 2 4 12 26 28 17 10 14 18 14
12 10 10 7 4 5 6 6 5 4 4 3 3 1 -1 -0 0 -0 -0 1 4 5 5 7 7 2 2 4 2 5 5 1 0 6 14 22 23 19 15 13 13 11
12 9 6 6 7 7 5 2 -0 -0 2 2 1 1 1 3 4 4 3 2 2 3 5 6 4 1 4 7 6 4 1 1 4 9 14 18 18 19 18 11 10 16
10 9 5 3 3 2 -1 -1 -0 1 2 1 1 2 2 4 5 4 4 2 0 2 4 5 10 15 15 15 18 14 5 4 9 10 13 16 14 15 16 10 9 15
7 7 5 2 1 1 2 4 5 6 3 -1 -1 1 1 3 3 3 2 2 3 5 3 4 17 25 17 12 20 26 19 12 10 9 12 13 10 10 13 11 10 11
8 7 8 8 8 7 6 6 6 4 2 0 -1 -1 1 2 2 2 2 0 5 9 4 4 13 16 10 6 11 17 16 9 6 8 12 11 8 8 9 9 9 9
7 8 10 10 9 6 3 3 4 2 1 3 2 -0 1 3 2 3 2 -1 3 6 3 6 10 7 5 7 8 11 12 7 8 12 14 12 9 8 7 7 8 9
4 7 7 3 1 0 -1 -1 1 1 1 3 4 2 1 2 3 3 2 3 7 6 4 11 14 7 4 7 10 16 18 13 14 17 14 10 7 6 7 8 9 10
3 4 3 -0 -2 -1 -0 1 -0 -0 2 3 2 1 0 1 2 3 3 5 6 4 7 17 18 8 4 9 14 19 19 16 17 15 10 8 6 6 9 10 9 8
3 3 2 -0 -0 1 0 -0 0 -0 1 2 1 -1 1 2 2 2 4 4 3 1 5 16 19 8 2 9 17 19 17 14 13 11 8 8 8 9 10 9 7 8

ECMWFNIL_500_avort_024.txt.gz
Vorticity
6 6 5 4 5 5 5 5 6 6 6 10 11 9 7 5 5 7 8 8 8 7 7 6 4 4 6 7 10 12 11 10 7 5 5 6 6 7 9 9 7 6
6 5 5 5 4 4 4 6 7 6 6 10 10 8 6 5 6 8 8 8 8 8 7 6 4 5 8 11 12 11 9 6 5 4 4 5 5 5 6 7 5 4
7 5 5 4 3 4 5 7 7 6 6 9 10 8 6 5 7 8 7 6 7 8 7 5 6 9 11 11 9 6 5 4 4 5 4 4 5 5 6 7 6 4
8 5 4 4 4 4 7 9 8 5 6 9 9 7 6 7 8 8 6 5 8 8 6 5 7 9 8 7 6 4 3 3 3 3 3 4 4 5 7 7 8 6
7 6 4 5 6 7 9 10 7 5 7 10 9 7 7 8 8 7 5 7 9 8 7 6 6 6 5 5 4 4 4 4 5 5 5 5 4 5 6 7 8 8
7 6 6 6 7 8 9 8 6 6 8 10 8 7 7 7 7 6 7 9 10 6 4 5 5 5 5 6 5 6 8 8 9 10 9 9 10 9 10 11 11 9
7 6 5 6 9 10 9 8 7 7 9 9 7 7 8 7 6 6 8 8 6 4 4 5 6 7 7 8 9 10 10 11 12 12 12 12 12 11 12 13 13 12
11 9 8 13 18 16 11 9 7 8 9 8 6 7 7 6 7 7 6 4 3 5 6 6 7 8 8 7 8 8 9 10 9 8 9 10 10 10 10 11 14 15
17 14 17 24 23 16 11 9 8 9 9 7 7 7 6 7 9 7 3 4 6 6 6 7 8 7 6 5 6 7 6 7 7 6 6 7 8 9 9 9 13 15
22 20 22 24 16 10 10 9 10 11 7 5 6 6 6 8 7 4 4 6 6 5 7 8 6 2 1 3 5 6 4 4 5 4 4 5 6 7 8 9 13 15
21 19 20 16 9 8 10 10 11 10 6 6 7 5 6 6 4 4 6 6 4 6 7 3 -2 -2 1 3 4 4 4 4 4 4 3 3 3 4 6 9 14 17
17 15 14 12 9 8 8 9 10 8 5 6 6 5 4 4 4 5 5 5 6 7 5 -1 -2 1 3 4 4 3 2 2 3 4 4 3 2 2 3 6 13 18
12 13 12 11 9 7 7 8 8 5 5 6 5 4 4 3 4 6 5 6 5 4 3 1 0 1 1 2 4 4 3 3 3 4 6 5 2 2 3 5 8 14
7 9 9 8 6 5 6 7 6 4 4 5 4 3 4 4 5 6 6 5 5 4 4 2 -0 1 2 3 3 3 3 3 2 2 3 5 4 2 2 5 8 11
3 7 8 7 4 5 7 7 7 5 4 5 6 4 4 4 5 6 6 6 6 4 2 0 1 2 2 2 3 5 7 8 7 6 7 11 13 10 5 6 11 13
2 6 8 8 6 7 9 8 5 3 4 7 5 3 4 6 8 9 7 4 1 -0 -0 1 2 1 1 3 5 7 13 18 17 13 12 15 18 18 13 10 12 12
7 8 9 10 10 8 6 5 4 3 7 8 4 2 5 9 10 9 6 3 0 0 1 2 1 2 5 7 6 5 10 15 14 9 7 8 10 12 11 9 9 9
14 12 11 10 10 9 6 5 5 7 8 7 5 6 7 7 6 4 4 5 4 4 5 4 3 4 6 6 4 4 6 8 8 6 4 5 6 8 8 7 7 8
16 15 12 10 9 8 6 5 7 10 11 9 8 7 5 5 3 1 3 4 3 4 4 4 3 1 3 6 6 5 7 9 8 6 5 7 10 13 12 9 8 11
15 16 14 10 9 7 5 7 11 12 11 9 7 4 3 3 1 -0 0 1 2 4 4 2 1 2 6 9 7 5 8 13 13 7 5 11 15 17 16 13 11 13
13 19 19 12 8 8 7 10 13 13 10 6 3 2 1 0 -0 -0 1 1 2 4 4 2 2 4 6 6 5 5 5 10 14 9 4 9 16 16 14 12 12 12
5 13 21 17 10 9 9 12 14 11 8 4 2 2 1 0 1 2 2 1 2 3 3 1 2 4 4 3 4 4 3 6 12 12 6 7 14 15 10 10 11 10
2 7 19 20 13 11 12 13 13 10 6 4 4 4 2 1 3 4 1 -0 2 4 2 0 2 3 1 2 3 3 4 5 5 6 5 5 11 15 10 8 11 10
2 5 16 21 15 12 13 11 10 9 6 5 5 2 0 2 4 1 -1 1 2 3 2 1 1 2 1 2 2 3 7 6 5 8 9 5 10 15 11 8 11 11
3 3 13 20 15 12 13 12 10 9 4 3 3 0 0 4 4 0 -1 1 3 2 2 3 1 1 3 3 2 4 7 8 14 21 16 7 10 15 13 11 13 11
7 6 10 18 18 16 16 13 9 6 1 -0 0 0 1 2 1 1 1 1 2 2 1 3 2 1 2 2 2 6 8 9 15 20 12 6 12 17 14 13 12 9

ECMWFNIL_500_avort_027.txt.gz
Vorticity
4 5 5 5 6 6 7 7 6 5 4 4 4 4 7 13 12 7 6 8 8 6 6 7 7 5 3 4 7 8 8 7 6 6 5 4 4 3 4 4 6 7
4 5 5 5 5 5 5 4 4 5 3 3 5 4 7 13 11 6 7 8 6 6 6 7 7 5 4 6 7 5 5 5 5 5 4 4 5 5 6 7 8 8
4 4 6 6 5 4 3 2 4 5 3 4 6 4 6 12 11 7 8 7 6 5 6 7 6 3 5 6 4 3 4 5 5 7 8 9 10 10 10 11 11 10
7 5 7 7 6 4 3 3 4 4 4 5 5 3 7 12 11 8 8 6 5 5 6 6 5 4 5 5 3 4 6 7 8 10 11 12 13 13 13 13 12 12
11 8 7 7 7 5 4 5 3 4 5 5 5 4 7 12 11 8 7 6 4 5 6 5 4 5 4 3 5 7 8 8 9 10 11 12 12 12 13 13 13 14
13 11 10 9 9 7 5 5 3 4 4 4 6 5 7 13 12 8 7 5 5 6 6 5 5 5 4 4 7 7 7 8 9 8 7 7 7 7 7 7 7 9
16 13 10 10 11 8 7 6 4 5 5 5 6 5 10 15 11 7 6 5 6 6 4 5 5 4 4 7 7 5 6 8 7 5 3 3 3 3 3 2 2 3
16 15 12 10 11 9 8 6 5 6 5 7 8 6 12 16 10 6 6 5 6 5 4 5 5 5 7 7 4 2 4 6 4 2 2 2 2 2 2 2 2 2
16 18 16 13 12 10 9 6 6 7 7 9 8 6 13 16 10 6 6 5 5 4 3 4 4 7 8 3 0 2 5 4 2 2 2 2 2 3 3 4 4 4
16 18 19 20 18 16 13 9 8 9 10 11 7 6 15 15 8 7 8 6 4 3 3 4 6 8 3 -1 1 4 4 3 3 3 3 3 4 4 4 4 5 7
13 14 18 24 25 24 20 14 12 11 11 10 6 8 16 13 6 8 10 6 4 4 4 5 7 5 -0 -0 3 3 2 3 4 4 5 8 10 10 9 8 9 13
11 11 15 22 28 29 23 16 12 10 9 7 5 9 16 11 7 9 7 4 4 4 5 6 6 3 1 2 3 1 1 3 3 4 7 12 14 14 12 10 11 14
12 8 9 16 26 28 18 10 8 6 7 6 4 10 15 9 7 9 5 3 4 4 4 5 5 3 3 3 1 1 2 3 5 5 7 10 11 10 8 6 7 9
14 6 4 10 21 22 13 6 6 4 5 5 4 10 14 9 7 7 4 3 5 5 4 5 4 3 3 1 -0 1 3 4 5 5 5 8 8 6 5 3 3 5
17 8 3 3 10 16 14 10 9 8 6 4 5 10 11 8 7 6 4 5 6 4 4 4 3 2 2 1 1 1 2 4 6 6 7 9 11 9 5 3 2 6
17 14 8 2 2 7 13 15 14 12 9 5 5 9 10 7 6 6 6 7 6 5 6 4 2 2 2 2 1 0 2 6 8 9 9 9 11 10 7 7 4 7
10 14 15 11 6 3 5 12 16 16 14 9 6 9 10 7 5 6 7 7 7 5 4 3 2 3 2 1 0 0 4 8 8 7 6 6 7 6 5 10 8 6
1 4 10 15 17 13 8 8 12 17 16 11 8 9 9 7 6 7 7 7 6 4 2 3 2 1 1 1 2 3 7 7 4 3 3 3 4 4 4 9 9 5
2 1 1 6 13 17 17 12 9 14 18 15 11 9 8 6 6 7 8 7 5 3 2 2 1 0 2 3 5 6 6 3 0 1 2 3 4 6 10 15 15 10
2 2 0 1 5 11 17 19 14 12 15 16 11 7 8 9 7 8 8 6 4 2 1 0 0 2 4 4 3 4 3 2 1 1 1 2 5 8 12 15 15 11
2 1 1 0 1 3 9 19 22 15 11 13 11 10 11 9 6 7 7 3 2 1 0 1 3 4 4 3 3 2 1 2 2 1 2 4 7 10 9 8 7 6
7 3 3 2 2 2 2 11 22 21 14 11 11 11 11 8 6 7 5 3 1 1 2 4 4 4 4 3 3 2 1 2 2 2 5 7 9 10 8 7 8 6
14 8 4 2 2 2 0 2 14 23 19 11 11 14 14 12 11 9 4 1 -1 -1 3 3 1 2 3 2 3 2 1 2 2 3 7 9 9 8 7 8 8 7
21 11 4 5 3 3 5 1 6 18 20 13 13 17 17 15 12 7 1 -1 -0 1 3 3 1 2 2 1 1 1 1 2 1 3 7 8 7 6 5 5 5 5
24 9 4 7 3 1 4 1 2 12 17 15 16 19 18 13 8 4 1 0 2 4 3 1 1 1 1 1 1 1 1 1 1 3 6 7 7 7 4 4 5 7
18 11 4 5 5 4 4 1 2 8 12 15 18 19 15 9 7 7 5 2 3 4 3 1 1 0 -0 1 1 1 1 1 1 2 4 5 8 8 5 4 8 10

ECMWFNIL_500_avort_030.txt.gz
Vorticity
4 4 5 5 6 6 8 8 7 8 6 4 5 3 3 4 5 9 12 9 4 6 9 7 6 6 5 3 5 6 5 4 5 7 8 9 9 9 9 8 8 8
5 4 5 5 5 5 7 8 5 6 6 5 5 4 5 5 4 8 13 9 3 7 10 6 6 6 4 4 5 5 4 5 8 8 8 9 8 8 7 7 7 7
6 5 5 5 5 5 6 7 6 4 4 5 6 6 5 3 2 7 13 10 5 8 9 5 6 6 4 4 4 3 5 7 8 8 7 7 6 6 5 4 4 4
8 5 5 5 5 5 5 7 8 5 3 4 5 5 4 4 3 7 13 11 6 8 9 5 5 5 3 5 4 3 7 7 6 6 6 4 3 3 3 3 3 2
12 9 7 6 5 5 5 7 8 7 6 5 4 4 6 6 3 4 10 11 7 8 9 5 4 5 4 4 3 5 7 6 5 5 3 2 2 2 3 3 3 3
15 13 11 8 7 7 6 7 7 7 7 5 4 4 6 6 4 4 8 11 10 9 8 6 5 5 4 3 4 6 5 2 3 3 1 2 3 4 4 5 6 7
16 16 14 12 9 8 7 7 8 8 7 6 5 5 7 8 6 5 6 10 12 10 8 7 6 5 3 3 5 6 1 0 2 2 1 4 4 5 7 9 10 9
19 17 16 15 13 11 9 8 7 7 7 7 6 6 8 9 7 5 5 9 13 12 9 7 6 5 3 4 7 4 -0 0 2 1 3 4 3 5 9 13 15 13
17 19 17 16 16 14 13 10 8 7 6 6 6 6 8 8 7 6 5 7 12 13 10 7 6 5 4 5 6 3 1 1 1 2 2 1 2 6 8 11 12 11
13 16 17 18 19 20 18 13 9 7 7 7 6 6 8 9 7 6 5 7 11 13 10 6 6 5 4 7 5 1 1 1 1 1 0 1 4 5 5 8 10 8
9 13 17 17 17 21 25 22 14 8 6 7 6 6 7 8 7 6 7 8 9 11 10 7 6 5 6 7 3 1 2 2 1 1 0 3 5 5 6 7 8 6
7 11 15 13 9 12 20 26 24 15 7 5 5 6 7 8 8 6 7 9 8 9 10 8 6 5 8 6 1 1 2 2 1 -0 0 5 6 5 7 8 9 8
7 7 11 11 6 5 9 19 27 25 17 10 7 7 7 8 9 7 8 8 7 8 10 8 5 6 8 6 1 2 2 1 0 -1 1 6 5 5 7 7 7 6
7 4 5 10 8 4 3 9 20 27 26 20 16 13 10 8 7 6 8 9 7 9 10 7 6 7 8 4 1 2 2 -1 -1 -1 2 4 4 5 6 5 6 6
7 2 -1 5 11 11 6 3 9 19 25 24 21 16 10 8 7 6 7 9 8 9 9 6 6 8 7 4 2 3 2 -0 -1 0 2 4 4 4 3 4 7 5
7 5 -1 -2 5 12 12 8 5 8 14 19 20 16 8 4 6 10 11 10 9 9 9 7 6 7 6 3 2 4 3 -0 -1 1 3 4 4 3 2 3 5 4
7 7 4 0 1 4 9 13 12 9 10 12 15 16 13 8 9 16 18 14 10 10 9 7 5 5 5 3 2 4 3 -0 -1 2 5 6 4 3 2 3 6 7
11 10 8 4 2 2 2 5 10 13 14 14 14 14 14 12 12 19 24 18 10 10 10 8 6 5 4 2 2 2 2 1 2 4 6 5 5 4 3 5 8 7
7 9 9 4 1 1 3 3 4 6 9 13 17 17 16 15 13 17 25 20 11 12 11 7 7 7 4 2 2 1 2 3 4 6 6 4 4 4 5 7 7 6
2 6 8 6 2 -1 1 3 2 2 3 5 10 14 18 20 15 15 22 21 15 14 12 8 8 7 3 2 2 1 1 3 5 5 4 3 3 4 6 9 9 6
2 4 7 10 10 7 5 4 2 1 2 4 4 5 11 18 17 16 19 20 16 15 12 9 8 6 2 1 2 2 2 3 5 5 3 2 2 2 5 6 7 7
1 1 2 4 8 8 9 10 8 3 0 2 3 2 5 12 16 17 19 20 17 16 15 11 7 5 2 1 1 2 2 4 7 4 1 1 1 1 3 4 3 5
7 4 1 1 1 1 3 8 11 9 4 0 2 4 4 6 9 11 16 20 18 15 17 15 9 4 3 3 2 1 2 5 6 2 0 1 0 -0 1 1 1 3
10 4 -2 -2 -0 1 2 2 4 6 5 1 -0 1 -0 1 6 10 14 19 21 18 17 15 8 3 3 2 1 1 3 5 4 2 1 -0 -1 1 1 -0 -0 1
7 1 -4 -2 4 8 8 8 8 6 4 2 -0 -1 1 1 3 6 10 17 22 19 14 12 8 4 2 1 2 2 2 3 3 1 -0 -1 -0 2 1 -0 -0 1
2 0 -0 1 3 5 8 17 22 15 10 10 3 -3 0 3 0 -1 2 12 21 21 14 11 10 5 -0 -1 3 2 0 2 1 -2 -2 1 5 5 2 1 2 2

ECMWFNIL_500_avort_033.txt.gz
Vorticity
5 4 4 7 8 7 6 6 6 8 7 4 3 5 6 5 5 5 4 4 8 12 9 6 9 11 8 5 4 4 3 4 7 6 6 6 5 5 4 3 3 3
3 3 4 5 6 6 7 7 7 7 8 6 4 4 6 5 5 4 4 4 5 10 11 8 9 11 8 5 5 4 3 5 5 5 5 4 3 3 3 2 2 3
4 4 3 4 4 5 5 6 7 7 7 7 5 4 5 6 6 4 3 5 5 7 10 10 10 10 7 5 5 3 4 6 5 4 5 3 2 2 2 3 3 5
6 5 4 4 4 5 5 4 5 6 7 7 6 5 6 7 6 4 3 5 5 4 7 10 12 10 6 5 6 3 4 5 4 4 4 1 1 3 2 3 6 9
7 7 6 6 5 5 5 4 5 5 6 6 6 6 6 7 7 4 4 5 4 4 5 8 13 11 5 6 6 4 4 4 3 4 3 1 2 2 1 4 8 12
9 8 8 8 7 6 5 5 6 6 5 6 5 6 7 7 6 5 6 5 4 4 5 7 13 13 7 6 6 4 5 4 2 2 1 1 2 0 1 6 8 8
9 9 10 10 10 9 7 6 7 6 6 6 5 6 7 8 7 6 6 5 3 4 5 6 12 14 9 6 6 5 5 4 2 1 1 1 1 -0 2 5 5 5
9 11 12 13 14 13 11 9 8 7 6 6 6 5 6 8 7 6 6 7 5 3 4 6 11 14 11 7 6 6 6 4 1 0 1 1 1 -1 0 3 5 5
9 15 17 20 20 18 16 13 10 9 7 6 5 5 6 7 7 7 6 7 6 3 3 6 10 13 12 7 5 6 7 5 1 0 1 1 1 -1 -1 3 6 6
10 14 16 19 21 21 21 17 14 11 9 8 7 6 6 6 7 8 7 7 7 4 4 6 9 12 11 8 5 6 8 5 1 0 1 1 1 -1 -1 3 7 7
7 10 11 14 17 19 20 20 20 17 12 9 7 7 7 7 7 7 7 8 8 6 4 5 9 11 10 8 5 6 8 6 2 0 1 1 1 -1 -2 2 7 7
7 8 7 10 13 14 15 17 21 24 25 21 15 9 6 5 7 7 8 9 8 5 4 4 8 11 10 8 5 6 8 7 3 1 1 1 1 -0 -1 2 6 7
9 6 5 8 10 11 12 11 13 17 23 29 31 30 23 14 10 7 6 7 6 5 5 5 8 11 10 8 5 6 9 7 4 3 2 2 1 0 0 2 5 5
9 6 6 6 7 9 10 10 11 10 10 14 21 31 37 36 31 23 16 10 7 6 6 5 7 11 11 9 7 8 9 7 4 3 2 1 2 1 1 3 5 4
7 3 4 5 4 4 3 3 6 9 11 12 10 12 18 27 33 36 32 26 19 14 8 3 7 12 12 9 7 8 8 5 4 3 2 1 2 1 2 4 5 4
6 4 4 5 4 2 0 -0 0 3 8 11 13 14 12 11 14 20 24 27 26 21 13 5 7 12 12 9 7 7 7 4 3 3 1 0 1 1 2 5 5 5
6 6 5 4 4 4 4 2 -1 -1 3 6 7 10 12 13 14 12 10 14 18 20 18 12 10 11 11 9 7 6 7 4 2 3 2 -0 1 2 3 4 4 4
4 6 7 6 6 6 6 6 3 -1 2 4 1 1 7 13 17 16 11 11 13 16 19 18 16 12 9 9 7 6 7 5 1 2 3 1 1 1 3 4 3 3
5 6 9 9 9 8 6 6 6 1 -2 -2 -1 3 4 5 9 13 13 13 13 14 16 20 20 14 8 9 7 5 7 5 2 3 3 2 1 1 3 3 3 3
3 5 10 9 7 5 3 2 3 4 1 -2 -0 4 3 0 3 6 9 12 15 15 14 16 21 18 11 9 7 6 7 4 2 3 2 1 1 2 4 3 2 3
2 4 6 5 2 1 2 2 0 2 3 1 1 1 1 3 3 1 4 7 11 15 15 15 19 19 14 10 8 6 6 5 3 3 4 4 3 3 3 3 3 3
4 1 1 2 3 3 2 2 2 7 11 10 6 3 2 2 0 1 5 4 4 9 11 12 18 20 16 13 12 8 5 5 6 5 5 4 4 4 4 3 3 3
2 1 2 1 3 2 0 3 5 6 7 5 4 6 5 2 0 0 1 1 2 5 7 9 14 18 17 14 12 10 7 5 6 7 6 5 4 5 5 4 3 2
4 5 3 -1 1 1 0 4 4 1 0 0 2 4 3 2 3 1 -2 1 2 -0 2 7 9 12 17 17 13 10 7 5 6 6 5 5 5 5 5 5 3 0
7 9 5 -0 2 3 1 2 4 2 0 -1 0 4 6 7 8 5 -1 -3 -1 -0 -1 1 4 7 12 17 17 13 8 5 4 7 9 8 6 6 7 7 4 0
8 12 13 7 1 3 6 5 3 2 0 -1 -0 2 8 15 23 30 24 6 -2 3 3 -0 0 2 6 14 18 15 10 5 2 7 12 10 6 7 8 7 3 -1

ECMWFNIL_500_avort_036.txt.gz
Vorticity
7 6 6 7 7 6 6 7 8 8 7 5 5 5 6 7 6 6 4 3 2 4 8 11 11 8 7 9 7 5 6 5 5 7 7 7 5 2 2 3 4 5
5 5 4 5 6 5 5 6 6 8 9 7 5 5 6 7 7 6 4 4 2 2 5 9 11 9 7 9 8 6 6 6 6 8 7 5 3 2 2 3 5 8
4 4 3 3 4 5 5 5 5 5 7 7 7 6 5 6 8 7 5 4 3 2 3 6 11 11 8 8 8 6 6 6 6 8 8 4 3 2 1 2 6 9
4 4 4 3 3 4 4 4 4 4 5 5 6 6 5 5 6 7 5 4 3 2 1 4 9 12 9 7 8 7 6 7 7 8 8 4 3 3 -0 2 5 6
4 4 4 4 4 4 3 4 4 4 4 4 5 5 5 5 6 7 7 5 4 2 0 1 7 12 11 8 7 6 7 7 7 8 7 3 3 2 -1 0 4 4
5 5 6 6 5 4 4 4 4 4 4 3 4 4 5 5 6 8 8 6 5 4 1 -0 3 9 12 10 7 5 7 7 6 8 7 3 2 1 -2 -1 2 3
7 7 7 7 6 6 6 5 5 5 4 3 3 3 4 5 5 7 8 7 6 6 4 1 0 6 11 12 8 5 6 7 6 7 7 3 2 1 -1 -3 -1 1
8 8 7 7 8 8 9 8 8 7 6 5 4 4 3 4 4 6 8 8 7 6 6 2 -0 3 9 13 11 6 6 7 6 7 7 4 2 2 1 -1 -2 -1
8 8 9 9 9 11 11 12 13 12 11 10 8 7 5 5 5 5 6 8 8 7 7 5 2 1 5 11 12 7 6 7 7 6 6 5 2 2 2 1 0 -1
8 8 8 9 9 11 13 15 16 17 16 15 13 11 9 7 6 6 6 7 8 8 7 6 5 2 3 8 10 9 6 7 7 6 6 5 2 2 2 1 2 0
7 7 6 7 9 12 14 15 17 19 20 20 18 16 14 11 9 7 6 6 7 8 8 7 6 3 1 4 8 9 7 6 7 6 5 6 3 2 1 1 2 1
6 5 5 6 7 9 10 11 15 19 22 24 24 25 23 20 15 11 8 7 7 7 7 7 6 4 1 3 6 9 9 7 7 6 5 5 4 2 1 1 2 1
6 5 2 3 6 8 9 11 14 15 17 19 23 27 30 31 29 22 14 9 8 8 8 7 7 5 2 2 5 9 10 8 7 6 6 6 5 3 1 1 1 1
7 6 2 3 7 8 9 12 15 15 14 13 13 13 16 22 30 33 30 21 13 10 9 8 8 6 4 3 6 9 11 10 8 7 6 6 6 4 2 1 1 1
9 7 3 5 7 8 10 13 13 14 14 12 12 12 10 9 14 22 30 33 28 22 17 13 11 7 5 5 6 9 10 9 9 8 6 5 5 5 4 2 1 1
9 6 4 6 9 9 10 8 7 9 9 8 8 10 10 10 10 10 14 20 25 27 26 23 19 14 9 7 7 8 9 9 8 8 6 5 6 5 5 4 3 1
10 6 5 8 9 8 7 6 5 6 6 4 4 3 2 7 13 14 11 11 12 16 20 21 22 20 14 11 9 7 8 9 8 8 7 5 6 6 6 4 3 2
11 5 7 11 10 5 4 4 3 3 3 3 3 0 -2 2 7 9 10 11 10 11 12 12 13 17 16 13 10 8 9 10 9 8 7 5 5 7 7 5 4 2
8 4 8 13 11 6 4 3 2 3 4 4 0 -3 -0 4 4 2 5 9 10 10 12 12 11 12 13 12 11 10 11 12 10 8 6 5 5 7 6 5 5 4
5 6 9 10 8 6 6 4 4 5 5 3 1 -2 -0 1 -0 -1 2 5 6 5 8 12 14 14 12 10 10 10 11 12 12 9 7 5 5 6 7 6 5 6
6 7 7 6 7 9 9 5 5 7 5 2 2 1 -1 -2 -1 2 4 3 3 4 5 6 10 15 16 13 10 8 8 11 12 10 8 7 6 6 8 8 6 6
8 8 7 6 5 8 10 9 8 6 3 1 1 1 -0 -0 1 3 3 1 0 1 2 3 3 5 10 14 14 11 8 7 11 13 10 8 8 9 8 8 8 7
9 8 7 6 5 5 8 10 9 5 2 1 0 -0 1 4 5 4 2 2 2 1 2 4 2 -1 2 7 10 11 11 9 8 11 11 8 7 8 8 7 8 9
5 5 5 4 4 4 6 8 7 4 2 -1 -2 1 5 8 9 7 4 3 6 5 3 1 -1 -3 -1 2 4 6 8 11 11 9 10 11 10 8 8 7 7 9
5 7 7 7 6 4 4 5 4 2 1 -1 -0 3 4 5 6 5 2 1 3 5 7 10 12 9 2 -3 -1 2 1 2 8 10 10 12 14 12 9 9 8 9
10 13 15 18 17 11 7 5 2 0 0 -1 0 3 3 1 1 1 1 2 1 0 3 9 16 23 21 8 -4 -4 0 -1 -1 4 6 9 13 15 13 11 10 9

ECMWFNIL_500_avort_042.txt.gz
Vorticity
8 7 7 6 6 5 6 7 7 7 6 6 7 7 8 8 6 6 6 5 5 3 3 3 3 6 9 12 13 11 9 6 4 3 3 4 6 8 8 6 6 5
8 7 7 6 6 6 6 7 7 7 7 7 8 8 9 9 8 8 7 6 5 4 4 2 2 4 5 8 12 13 12 9 6 4 3 3 5 8 8 6 5 5
8 8 7 5 5 5 5 6 6 6 7 7 9 8 8 9 9 9 8 6 6 5 4 3 2 2 3 4 7 10 13 13 10 6 4 3 4 7 8 7 5 4
8 8 8 6 5 4 4 6 6 7 8 6 6 6 6 7 8 8 8 7 6 5 4 5 3 1 1 2 4 5 8 13 14 10 6 4 4 5 7 8 6 3
8 9 10 10 8 6 5 7 7 7 8 6 5 5 4 5 5 6 7 6 5 5 5 5 5 3 1 1 2 3 4 7 12 13 10 6 4 5 7 8 7 4
10 11 13 14 14 12 9 8 6 6 7 6 5 5 5 5 4 5 5 6 6 5 4 4 4 4 3 2 1 2 2 3 6 11 13 10 6 4 6 7 8 6
10 10 10 11 11 10 9 8 6 5 5 4 4 4 4 4 4 4 3 5 5 5 5 4 4 4 4 4 3 2 2 2 3 6 10 12 9 6 5 6 7 6
7 7 6 6 5 5 5 5 5 5 4 4 5 5 5 5 6 6 6 5 5 5 6 5 5 6 6 6 5 4 3 2 2 2 4 9 12 10 6 5 6 7
5 5 4 4 4 3 4 4 4 5 6 8 9 9 11 11 10 10 10 10 9 7 7 8 7 6 7 7 7 5 5 4 2 1 1 4 9 12 10 8 7 5
5 5 5 5 4 4 5 5 5 7 9 11 12 12 11 11 11 11 13 14 14 12 10 9 9 7 7 7 7 7 6 5 4 3 2 1 4 8 11 13 11 6
5 6 6 7 7 7 6 7 9 10 12 13 12 10 8 7 8 11 14 16 16 16 14 11 10 9 8 7 8 8 7 6 8 6 4 2 1 4 7 12 15 11
5 6 8 8 9 9 9 10 11 10 11 11 8 6 5 6 9 11 15 17 16 18 19 16 14 12 11 10 9 9 9 8 9 9 7 5 2 2 3 6 12 14
6 7 7 7 7 9 10 11 11 9 10 9 6 5 5 8 12 14 15 17 15 16 20 20 18 16 15 14 10 10 10 8 8 9 10 8 5 3 2 2 6 10
9 8 7 7 6 7 10 10 11 9 8 8 5 5 6 8 13 14 14 15 13 13 16 19 20 19 17 16 13 11 10 9 8 8 9 9 8 6 4 2 2 5
11 9 8 7 5 7 10 10 10 8 6 7 5 4 6 9 12 14 13 12 11 11 11 14 19 21 20 19 17 13 11 10 7 6 8 9 8 7 6 4 2 3
10 9 7 6 5 7 9 8 8 7 6 6 4 4 7 9 11 13 12 11 11 11 10 11 13 15 17 19 20 19 18 17 14 10 8 9 9 8 6 4 4 5
10 10 8 6 5 6 8 8 7 6 5 5 4 5 7 9 11 12 11 10 10 10 10 11 10 9 10 11 13 16 17 19 20 18 15 14 15 15 12 9 7 7
14 13 11 7 6 6 8 8 6 4 5 5 6 6 7 9 11 11 9 9 9 10 9 8 8 9 9 8 8 8 9 10 13 16 16 16 15 17 17 16 13 11
13 15 14 10 7 8 8 7 6 5 6 6 5 5 7 10 10 8 8 8 8 8 7 7 8 8 7 8 8 7 8 8 8 9 11 11 12 13 14 15 16 14
9 14 16 13 8 8 8 8 7 6 5 6 6 6 8 9 8 7 7 7 6 6 7 8 8 5 4 5 5 5 5 6 6 8 8 9 9 9 9 11 13 12
13 13 14 14 10 8 8 9 8 6 5 6 7 7 7 8 6 6 7 7 6 5 7 8 5 3 3 2 1 2 2 1 2 3 4 5 6 6 6 6 6 6
25 14 11 13 10 8 8 8 10 10 7 6 6 7 9 9 8 6 6 7 6 3 4 6 4 3 4 2 0 -1 -2 -2 -0 -1 -1 1 2 3 5 5 5 5
30 16 10 12 10 9 9 8 10 12 10 9 7 7 9 9 8 6 5 7 8 6 5 5 4 2 3 5 6 3 -1 -2 -2 -3 -2 -0 0 2 4 4 5 7
22 12 12 12 10 11 12 11 13 13 13 11 8 6 8 7 6 6 6 8 11 12 10 6 3 2 0 2 6 6 5 5 3 2 2 4 4 3 2 1 2 3
13 6 9 10 9 11 13 13 14 13 11 10 8 7 7 5 5 4 4 5 7 11 12 8 5 3 1 0 2 3 5 8 9 8 6 4 4 2 1 3 5 5
13 9 9 10 11 14 13 11 10 9 8 9 8 7 5 3 4 4 3 4 4 7 11 10 7 4 1 0 0 -1 -0 1 2 4 4 3 3 2 2 5 6 8

ECMWFNIL_500_avort_045.txt.gz
Vorticity
11 9 7 7 6 6 6 6 5 5 6 7 6 6 7 7 6 5 6 7 5 5 4 3 3 4 4 5 7 10 11 11 9 7 6 5 3 3 4 7 7 7
10 10 8 7 7 7 6 6 6 7 8 8 7 8 7 6 6 6 7 8 6 5 5 4 3 3 3 3 4 5 9 11 12 11 8 6 5 4 3 5 6 6
10 10 9 8 9 8 8 8 9 9 9 8 8 8 8 7 6 6 7 8 8 6 5 5 4 3 3 2 1 2 4 7 9 12 13 11 7 5 4 4 5 6
9 9 8 8 8 8 9 10 10 9 8 8 9 10 10 9 7 7 7 7 8 7 6 6 6 4 4 3 1 -0 0 3 5 7 10 13 12 9 7 5 4 5
9 9 9 8 7 7 7 8 8 9 9 9 10 9 8 7 7 6 6 6 7 7 6 6 6 6 5 5 4 2 0 0 1 2 4 9 12 12 11 8 6 5
8 9 10 10 10 8 7 7 7 7 8 7 6 6 5 5 5 5 5 5 5 6 6 5 5 6 5 5 5 5 3 1 1 1 1 3 7 10 12 12 10 8
7 8 11 12 12 11 10 8 7 6 5 5 4 4 4 3 3 4 4 5 5 5 5 5 5 5 6 6 6 6 6 4 3 2 1 2 3 5 7 11 14 13
7 8 10 10 10 11 11 9 8 7 5 5 4 3 4 5 5 6 8 9 10 9 8 7 6 6 6 6 6 6 6 6 6 4 3 2 2 3 3 6 10 13
8 9 8 8 7 7 7 6 5 5 4 4 4 5 7 8 10 11 12 10 10 11 11 10 9 7 7 6 6 6 7 7 7 7 6 5 4 3 2 3 6 8
8 8 6 6 6 5 4 4 3 3 5 5 6 8 9 11 12 12 9 7 7 8 11 13 12 11 10 9 8 7 7 7 8 8 8 7 6 4 4 3 4 5
7 6 6 5 5 5 4 4 6 6 9 9 9 11 11 12 11 8 6 8 9 9 10 13 15 15 14 13 12 11 9 8 8 9 9 8 8 7 7 5 4 3
6 6 6 6 5 6 6 6 8 8 10 11 11 11 12 10 8 5 7 11 13 13 12 12 15 17 18 17 15 14 13 11 10 9 9 9 8 8 8 8 7 5
6 4 4 4 5 6 7 7 8 9 10 10 10 11 11 8 5 5 9 12 14 15 17 16 16 17 18 18 17 16 14 12 11 9 9 9 8 8 9 9 9 8
4 3 2 3 4 5 7 8 8 9 9 9 10 10 9 6 5 7 11 13 12 13 15 16 14 13 14 16 16 16 15 14 12 10 9 9 9 8 8 7 8 8
5 5 4 5 5 6 7 6 7 8 8 9 9 8 7 5 5 8 11 11 11 12 12 11 10 10 11 12 13 15 17 18 17 16 14 14 14 15 14 12 10 9
5 5 7 10 10 8 7 6 6 7 8 9 8 7 7 5 5 8 10 11 10 10 10 9 9 9 10 10 10 11 13 15 17 18 18 18 19 21 22 21 19 17
6 7 9 13 13 11 9 6 6 6 8 10 9 8 7 5 6 8 9 10 10 8 9 8 8 9 10 11 10 9 9 9 10 11 12 13 14 15 17 19 18 18
10 11 12 14 14 14 11 7 4 5 7 10 9 8 6 6 7 8 8 9 9 7 7 6 6 8 8 8 9 9 9 9 9 9 9 9 9 9 10 11 12 12
9 11 12 12 14 16 13 9 5 5 7 9 8 7 6 6 7 8 7 7 7 6 6 6 6 6 6 7 7 6 6 7 8 9 9 8 7 6 5 5 5 4
5 6 7 9 11 13 15 15 10 7 7 8 7 6 6 6 6 6 6 7 7 6 5 5 5 5 6 7 5 4 4 5 5 6 5 5 4 3 2 2 2 2
5 4 5 11 14 11 13 16 13 9 7 7 7 6 5 6 6 6 6 6 6 6 7 8 5 3 5 5 4 3 2 2 4 3 3 3 2 1 1 1 1 2
5 3 5 15 20 14 11 14 13 10 8 7 7 6 7 7 6 6 6 5 5 5 7 9 7 5 5 5 4 1 -2 -3 -1 0 1 2 1 2 3 3 3 3
4 3 7 18 24 17 11 11 13 11 8 8 7 6 7 9 7 5 5 5 5 4 5 7 7 7 9 9 7 4 1 0 -0 -1 0 -0 0 2 4 5 6 5
3 2 10 22 25 19 13 10 10 10 8 7 7 7 9 10 9 6 5 6 6 6 7 8 6 7 10 11 11 9 6 5 3 2 2 1 1 2 2 3 4 4
3 1 10 22 22 17 15 12 9 8 7 6 7 8 10 10 9 8 8 8 8 6 6 6 5 5 6 7 8 8 6 5 4 3 2 1 -0 0 0 2 4 4
3 1 8 18 18 13 14 14 10 8 7 7 8 8 9 9 8 9 9 7 5 3 3 3 3 3 2 2 3 3 3 4 4 5 5 5 6 8 9 12 13 11

ECMWFNIL_500_avort_048.txt.gz
Vorticity
6 6 7 7 8 8 7 7 5 5 6 4 3 4 5 4 4 6 6 6 5 4 4 4 2 1 2 3 5 6 8 10 12 12 10 10 10 8 7 6 6 7
7 8 8 8 8 8 8 7 6 5 5 6 6 6 6 5 5 6 6 6 6 5 5 4 3 2 1 1 2 2 3 4 6 9 10 11 11 12 11 9 7 7
9 9 8 8 8 8 8 8 7 7 7 8 8 7 6 6 6 6 7 6 7 7 7 6 5 5 3 1 1 0 1 1 2 4 5 7 9 11 12 12 11 9
9 8 7 7 8 9 10 10 8 8 8 8 8 7 7 7 6 7 7 7 6 6 7 7 6 6 5 4 3 2 2 1 1 1 2 3 4 6 8 10 12 12
7 6 6 6 8 10 10 10 8 8 8 7 7 8 8 8 7 7 6 6 6 6 6 6 6 5 5 5 5 4 4 4 3 2 1 1 2 3 4 6 8 10
7 7 7 8 9 9 7 7 7 8 8 8 9 9 8 7 7 6 5 6 6 5 5 5 6 6 5 6 6 6 5 6 6 5 3 3 2 1 2 3 5 6
9 8 8 9 8 7 6 5 6 7 9 9 8 7 7 5 4 4 4 4 4 4 4 5 6 6 6 6 6 7 6 7 7 7 6 6 5 3 2 3 4 4
10 9 8 8 7 6 6 5 6 8 8 7 5 5 4 3 3 4 4 5 6 6 6 6 6 6 6 6 6 6 7 7 7 7 8 8 7 6 4 4 4 3
10 8 6 6 6 6 6 7 8 7 6 5 4 4 4 4 6 7 8 8 8 8 7 7 7 6 6 6 7 7 7 7 7 7 8 9 8 8 7 7 7 5
7 7 7 8 7 7 7 8 8 6 5 5 5 5 5 6 7 9 10 9 7 6 6 6 8 9 9 8 8 8 7 7 7 7 7 8 8 9 9 9 9 7
9 10 11 11 9 9 8 7 6 5 5 5 5 7 7 7 9 10 9 7 6 7 8 8 10 10 11 11 11 11 10 9 9 8 7 8 8 8 9 9 10 9
9 11 11 11 9 8 6 5 5 6 6 6 7 8 8 9 10 9 6 4 4 7 9 11 12 13 13 14 14 15 15 13 10 9 7 7 7 6 7 8 8 8
8 8 7 6 6 5 5 5 6 7 6 7 8 9 9 9 9 7 6 5 6 8 10 12 14 15 15 15 15 15 16 15 14 11 9 8 7 6 6 6 6 6
6 5 5 5 5 5 7 7 7 7 7 7 9 9 8 8 7 7 6 7 9 11 13 14 14 14 14 15 16 17 17 18 17 14 11 10 8 8 8 8 9 10
7 7 6 6 6 6 6 7 7 6 7 8 8 8 7 7 7 6 6 8 10 12 13 13 13 12 12 12 14 15 17 18 19 19 19 18 17 16 15 15 15 15
9 6 5 4 5 5 5 6 6 6 6 8 8 7 6 7 7 6 6 8 10 11 11 11 11 11 11 11 10 10 11 13 14 17 19 21 22 21 19 18 17 16
9 3 3 5 7 7 7 7 7 6 6 7 8 9 8 8 7 6 6 8 10 10 10 10 10 10 9 10 10 8 8 8 9 11 13 14 15 15 14 12 11 9
12 6 3 5 8 9 9 10 9 8 7 7 8 9 8 8 7 6 7 9 10 9 9 9 9 8 8 8 9 9 9 8 9 8 8 9 8 8 6 5 4 4
12 10 8 7 8 10 11 11 11 9 8 6 7 8 8 8 6 6 8 10 10 9 8 8 6 5 7 7 7 9 8 7 7 5 4 5 4 3 3 1 1 1
8 8 8 7 7 8 9 11 14 13 9 5 5 7 8 8 7 7 8 8 8 8 8 7 6 4 5 6 6 6 5 4 4 3 3 3 3 2 2 1 1 2
6 6 6 5 5 6 6 9 12 14 12 7 5 7 7 7 6 5 7 8 8 8 7 5 5 4 4 5 5 6 7 6 5 4 3 2 3 4 3 3 3 4
6 7 6 6 7 7 7 9 10 13 14 10 6 6 6 6 6 5 7 9 7 6 6 4 4 4 4 3 3 4 6 5 5 6 4 2 2 2 1 2 3 3
5 7 7 7 9 9 10 12 11 10 13 11 7 7 6 5 6 6 6 7 5 5 7 6 3 3 4 4 3 2 1 1 3 3 0 -1 0 2 3 2 0 -0
4 5 6 7 8 9 12 17 15 10 10 12 9 6 7 6 4 5 5 4 5 6 8 8 5 5 6 6 5 4 3 3 3 2 0 -0 1 2 2 -1 -2 -2
5 5 5 5 6 8 12 19 22 13 8 11 12 8 7 6 4 4 5 5 6 7 7 7 5 4 5 6 6 5 5 6 7 6 6 5 3 2 1 -1 -1 -0
7 5 3 3 3 5 9 18 25 21 11 9 11 9 7 7 6 6 6 6 7 6 6 6 4 3 3 3 3 4 4 5 6 5 5 6 5 4 3 3 3 4